Location: Alderney
(49.7170°N, 2.2000°W)
Time: 08:51:50
(UTC+00:00)

Envisat - Visible Passes

Search period start: 22 February 2018 00:00
Search period end: 04 March 2018 00:00
Orbit: 764 x 766 km, 98.2° (Epoch: 21 February)

Date Brightness Start Highest point End Pass type
(mag) Time Alt. Az. Time Alt. Az. Time Alt. Az.
22 Feb 3.9 18:20:30 10° ESE 18:24:44 27° ENE 18:28:59 10° N visible
22 Feb 3.8 19:58:35 10° S 20:03:31 50° W 20:08:28 10° NNW visible
23 Feb 2.9 19:21:38 10° SSE 19:26:43 83° ENE 19:31:50 10° NNW visible
23 Feb 5.7 21:03:25 10° WSW 21:06:24 16° W 21:09:24 10° NW visible
24 Feb 3.4 18:45:22 10° SE 18:50:07 42° ENE 18:54:54 10° N visible
24 Feb 4.7 20:24:48 10° SSW 20:29:16 31° W 20:33:46 10° NNW visible
25 Feb 4.1 18:09:47 10° ESE 18:13:42 23° ENE 18:17:38 10° N visible
25 Feb 3.4 19:47:19 10° S 19:52:20 62° WSW 19:57:24 10° NNW visible
26 Feb 2.9 19:10:34 10° SSE 19:15:36 68° ENE 19:20:40 10° N visible
26 Feb 5.5 20:51:33 10° SW 20:55:07 19° W 20:58:43 10° NW visible
27 Feb 3.6 18:34:29 10° SE 18:39:03 35° ENE 18:43:39 10° N visible
27 Feb 4.4 20:13:21 10° SSW 20:18:03 37° W 20:22:47 10° NNW visible
28 Feb 3.1 19:36:06 10° S 19:41:11 76° WSW 19:46:18 10° NNW visible
28 Feb 5.9 21:19:31 10° WSW 21:21:05 11° W 21:22:40 10° WNW visible
01 Mar 3.1 18:59:33 10° SSE 19:04:30 56° ENE 19:09:28 10° N visible
01 Mar 5.2 20:39:51 10° SW 20:43:52 23° W 20:47:54 10° NW visible
02 Mar 3.9 18:23:40 10° ESE 18:28:00 29° ENE 18:32:22 10° N visible
02 Mar 4.0 20:01:59 10° S 20:06:51 46° W 20:11:45 10° NNW visible
03 Mar 2.9 19:24:57 10° SSE 19:30:01 89° E 19:35:09 10° NNW visible
03 Mar 5.8 21:07:06 10° WSW 21:09:47 14° W 21:12:28 10° NW visible
